GORIZONT 15 [-]

Last updated on Tue Jun 27 2023 01:03:00 GMT+0100 (British Summer Time)

1 19017U 88028A 23177.11213442 -.00000101 00000+0 00000+0 0 9993 2 19017 14.0606 338.7542 0038154 162.5802 203.2347 0.97828996108855
UTC large
Height (km)
Speed (km/s)
/
Latitude / Longitude
Inclination (degrees)
Orbital Period (minutes)
Azimuth
Elevation
Range (km)
Doppler Factor

Next 0 passes for location: London (51.5072 / 0.1276)

Sorry there are no passes over London.